星链-6343 (STARLINK-6343 )

导读

STARLINK-6343是美国SpaceX星链卫星互联网项目的卫星,于2023年7月16日发射升空,隶属于美国太空探索技术公司。作为星链低轨卫星星座的组成部分,它承担着为全球提供高速互联网接入服务的任务,进一步扩充了星链星座的卫星规模,强化了星座整体服务覆盖能力与网络稳定性,推进星链全球组网进程。

Basic Information
目录编号:
57362
目录名称:
STARLINK-6343
国际标识:
2023-099AL
轨道中心:
EARTH
卫星名称:
星链-6343
卫星全名:
星链-6343 (STARLINK-6343 )
卫星状态:
在轨 (已飞行1064 天)
发射日期:
2023-07-16 UTC
国别 :
美国 (US)
星等 :
--
Orbit Information
数据来源 国际轨道数据 AOE轨道数据
星历时间 2026-06-14T17:41:40+0800
12小时前
查看轨道信息
2026-06-09T00:00:00+0800
6天前
查看轨道信息
半长轴 6861.202km 6861.127km
偏心率 0.0000997 0.0001241
轨道倾角 43.007° 43.005°
近地点辐角 267.533° 253.181°
升交点赤经 55.217° 87.620°
平近点角 92.540° 199.038°
近地点 482.38km 482.138km
远地点 483.75km 483.842km
周期 94.267分钟 94.266分钟
每日圈数 15.275749 15.275998
Detailed Information
固有亮度:
5
最大亮度:
2.5
卫星平台:
Starlink v1.5
覆盖范围:
全球
运营商:
太空探索技术公司
运营商所在国:
美国
制造商(研发单位):
太空探索技术公司
制造商所在国:
美国
使用方式:
暂无
Satellite Introduction
星链(Starlink)计划是由太空探索技术公司(SpaceX)提出的一个巨型低轨卫星互联网星座项目,计划在2019年至2024年间在太空搭建由约1.2万颗卫星组成的“星链”网络,其中1584颗将部署在地球上空550千米处的近地轨道,并从2020年开始工作。该卫星仍在工作。
2D Orbit Map
3D Orbit Map
Orbit Altitude Analysis Chart
Orbit Inclination Analysis Chart
Orbit Comprehensive Analysis Chart
View Comprehensive Chart